Weather History for Seward, AK

Change the Weather History Date:

Thursday, October 20, 2011

  Actual Average Record
Temperature  
Mean Temperature 39 °F -  
Max Temperature 48 °F 41 °F 52 °F (1963)
Min Temperature 30 °F 32 °F 19 °F (1996)
Degree Days  
Heating Degree Days 26    
Moisture  
Dew Point 30 °F    
Average Humidity 74    
Maximum Humidity 89    
Minimum Humidity 50    
Precipitation  
Precipitation 0.03 in - - ()
Sea Level Pressure  
Sea Level Pressure 29.61 in    
Wind  
Wind Speed 3 mph (North)    
Max Wind Speed 9 mph    
Max Gust Speed -    
Visibility 10 miles    
Events Rain    
Averages and records for this station are not official NWS values.
T = Trace of Precipitation, MM = Missing Value Source: NWS Daily Summary

Daily Weather History Graph

Daily Weather History Graph

Search for Another Location

Airport:

Trip Planner

Search our weather history database for the weather conditions in past years. The results will help you decide how hot, cold, wet, or windy it might be!

Date:

Astronomy

Oct. 20, 2011 Rise Set
Actual Time 8:49 AM AKDT 6:34 PM AKDT
Civil Twilight 8:06 AM AKDT 7:17 PM AKDT
Nautical Twilight 7:18 AM AKDT 8:05 PM AKDT
Astronomical Twilight 6:29 AM AKDT 8:53 PM AKDT
Moon No Moon Rise 4:23 PM AKDT (10/20)
Length of Visible Light 11h 10m
Length of Day
9h 44m
Last Quarter, 43% of the Moon is Illuminated
Oct 20
Last Quarter
Oct 26
New
Nov 2
First Quarter
Nov 10
Full
Nov 18
Last Quarter

Hourly Weather History & Observations

Time (AKDT) Temp. Windchill Dew Point Humidity Pressure Visibility Wind Dir Wind Speed Gust Speed Precip Events Conditions
12:53 AM 33.1 °F 30.0 °F 28.9 °F 85% 29.73 in 10.0 mi North 3.5 mph - 0.00 in   Overcast
1:53 AM 33.1 °F 28.7 °F 28.9 °F 85% 29.72 in 10.0 mi NNW 4.6 mph - N/A   Overcast
2:53 AM 30.9 °F 27.5 °F 28.0 °F 89% 29.72 in 10.0 mi ENE 3.5 mph - N/A   Scattered Clouds
3:53 AM 32.0 °F 28.7 °F 28.0 °F 85% 29.71 in 10.0 mi North 3.5 mph - N/A   Overcast
4:53 AM 30.0 °F - 27.0 °F 88% 29.71 in 10.0 mi Calm Calm - N/A   Mostly Cloudy
5:53 AM 30.9 °F 24.3 °F 27.0 °F 85% 29.70 in 10.0 mi North 6.9 mph - N/A   Overcast
6:53 AM 30.9 °F 26.2 °F 27.0 °F 85% 29.68 in 10.0 mi North 4.6 mph - N/A   Partly Cloudy
7:53 AM 30.9 °F 27.5 °F 27.0 °F 85% 29.68 in 10.0 mi NNW 3.5 mph - N/A   Overcast
8:53 AM 33.1 °F - 28.0 °F 82% 29.67 in 10.0 mi Calm Calm - N/A   Overcast
9:53 AM 33.1 °F - 28.0 °F 82% 29.65 in 10.0 mi Calm Calm - N/A   Overcast
10:53 AM 35.1 °F 30.1 °F 28.9 °F 78% 29.65 in 10.0 mi NNE 5.8 mph - N/A   Overcast
11:53 AM 37.9 °F 34.4 °F 30.9 °F 76% 29.64 in 10.0 mi NNE 4.6 mph - N/A   Overcast
12:53 PM 41.0 °F - 32.0 °F 70% 29.62 in 10.0 mi Calm Calm - N/A   Overcast
1:53 PM 46.9 °F - 30.9 °F 54% 29.59 in 10.0 mi Calm Calm - N/A   Overcast
2:53 PM 46.9 °F - 30.9 °F 54% 29.57 in 10.0 mi Calm Calm - N/A   Scattered Clouds
3:53 PM 48.0 °F - 30.0 °F 50% 29.54 in 10.0 mi SSW 3.5 mph - N/A   Mostly Cloudy
4:53 PM 46.9 °F - 30.0 °F 52% 29.52 in 10.0 mi North 5.8 mph - N/A   Overcast
5:53 PM 46.0 °F 44.8 °F 30.0 °F 54% 29.51 in 10.0 mi NNE 3.5 mph - 0.00 in Rain Light Rain
6:53 PM 45.0 °F 41.8 °F 30.9 °F 58% 29.51 in 10.0 mi Variable 5.8 mph - 0.00 in Rain Light Rain
7:53 PM 43.0 °F - 33.1 °F 68% 29.51 in 10.0 mi Calm Calm - 0.01 in Rain Light Rain
8:53 PM 43.0 °F - 32.0 °F 65% 29.49 in 10.0 mi Calm Calm - 0.00 in   Overcast
9:53 PM 41.0 °F - 36.0 °F 82% 29.49 in 10.0 mi Calm Calm - 0.00 in Rain Light Rain
10:53 PM 39.9 °F 37.8 °F 37.0 °F 89% 29.49 in 10.0 mi East 3.5 mph - 0.01 in Rain Light Rain
11:53 PM 41.0 °F 35.2 °F 35.1 °F 79% 29.46 in 10.0 mi NW 9.2 mph - 0.01 in   Overcast